Карточка аэропорта UHMM

Внимание!
Информация на этой странице в стадии наполнения.
Если вы не увидели какой-то информации, или заметили неточность - пожалуйста сообщите нам!
Спасибо!
Команда RU-STAFF
Название аэропортаСокол
Название аэропорта (англ.)Sokol
Превышение575 ft. (175.3 m.)
Координаты59°54.648', 150°43.2'
Высота перехода10000 ft
Эшелон переходаQNH>=1013hPa: FL110; 1013hPa>QNH>=977hPa: FL120; QNH<977hPa: FL130
Коды ответчика6540-6577
Зона ОрВДМагадан РПИ (UHMM)
Данные METARUHMM 252200Z 27001MPS 9999 OVC007 08/06 Q1001 R10/70D TEMPO BKN011 RMK MT OBSC QFE736 R28/24001MPS
Проноз погоды (TAF)UHMM 251950Z 2521/2703 24003G08MPS 0200 FG VV002 TEMPO 2521/2523 3100 BR SCT003 BKN011 BECMG 2523/2524 9999 NSW BKN030CB
NOTAMshow/hide NOTAM
AWOS   TABLE

Информация о ВПП


Диспетчерские позиции

Позывной Наименование органа УВД Частота
UHMM_APPМагадан-Подход119.3
UHMM_TWRМагадан-Вышка120.8



Спутниковое изображение